CDT,Max TemperatureF,Mean TemperatureF,Min TemperatureF,Max Dew PointF,MeanDew PointF,Min DewpointF,Max Humidity, Mean Humidity, Min Humidity, Max Sea Level PressureIn, Mean Sea Level PressureIn, Min Sea Level PressureIn, Max VisibilityMiles, Mean VisibilityMiles, Min VisibilityMiles, Max Wind SpeedMPH, Mean Wind SpeedMPH, Max Gust SpeedMPH,PrecipitationIn, CloudCover, Events, WindDirDegrees
2013-8-1,92,82,71,71,68,62,93,67,41,30.07,30.01,29.92,10,10,10,10,5,16,0.00,3,,87
2013-8-2,95,85,75,77,73,68,85,69,53,29.97,29.86,29.78,10,10,10,21,12,27,0.00,7,,156
2013-8-3,87,81,74,75,73,70,88,74,59,30.04,29.96,29.83,10,8,1,21,9,24,0.23,8,Rain-Thunderstorm,125
2013-8-4,87,81,75,78,75,70,94,82,69,30.09,30.00,29.92,10,10,10,14,8,19,T,7,Rain,106
2013-8-5,99,88,76,75,73,71,94,68,42,29.93,29.86,29.77,10,10,10,18,10,23,0.00,4,,172
2013-8-6,99,87,75,73,71,69,87,65,42,29.84,29.79,29.73,10,10,10,18,10,23,0.00,5,,166
2013-8-7,93,86,78,79,74,70,85,72,59,29.85,29.82,29.77,10,10,7,20,8,26,0.02,6,Rain-Thunderstorm,97
2013-8-8,86,79,72,76,73,71,100,85,70,29.94,29.87,29.81,10,10,6,23,7,29,0.09,7,Rain-Thunderstorm,83
2013-8-9,86,78,69,75,72,69,100,83,65,30.06,29.96,29.87,10,9,0,32,8,38,1.03,6,Fog-Rain-Thunderstorm,334
2013-8-10,86,77,67,73,69,66,100,81,61,30.12,30.07,30.01,10,10,6,15,8,19,0.00,6,,11
2013-8-11,90,80,70,75,72,70,100,76,52,30.09,30.04,29.98,10,10,8,9,3,12,0.00,5,,359
2013-8-12,87,80,73,75,73,71,94,80,65,30.07,30.00,29.91,10,9,2,20,5,25,0.18,6,Rain-Thunderstorm,86
2013-8-13,83,77,70,75,72,69,100,87,74,30.05,30.00,29.95,10,8,0,28,4,31,1.17,7,Fog-Rain-Thunderstorm,81
2013-8-14,84,75,65,68,65,61,100,76,51,30.12,30.06,30.01,10,10,10,13,6,17,0.00,3,,68
2013-8-15,83,73,62,65,62,59,93,72,51,30.09,30.04,29.97,10,10,10,21,6,25,0.14,3,Thunderstorm,122
2013-8-16,82,74,65,66,65,63,100,77,54,30.09,30.04,29.96,10,8,0,20,5,23,0.02,4,Fog-Rain-Thunderstorm,91
2013-8-17,81,72,62,63,61,59,100,75,49,30.13,30.09,30.03,10,10,6,13,5,19,0.00,0,,53
2013-8-18,86,74,62,66,63,61,100,72,44,30.12,30.06,30.01,10,9,4,12,4,13,0.00,1,,84
2013-8-19,87,76,65,68,66,64,93,71,48,30.09,30.03,29.96,10,10,7,15,6,19,0.00,2,,148
2013-8-20,90,79,67,68,66,63,87,66,44,30.05,30.00,29.96,10,10,10,13,7,17,0.00,1,,143
2013-8-21,93,80,67,68,66,62,87,62,36,30.06,30.02,29.99,10,10,9,15,8,19,0.00,1,,156
2013-8-22,93,84,74,71,68,66,79,62,44,30.07,30.01,29.96,10,10,10,13,8,18,0.00,5,,152
2013-8-23,94,83,72,73,69,67,87,68,49,30.03,29.99,29.94,10,10,9,20,7,24,0.00,4,,134
2013-8-24,93,82,71,73,71,69,93,70,46,30.09,30.04,30.00,10,10,6,16,8,20,0.00,1,,127
2013-8-25,94,84,73,73,71,69,87,67,46,30.16,30.11,30.07,10,10,7,14,7,18,0.00,1,,150
2013-8-26,93,84,75,71,70,66,82,65,47,30.17,30.11,30.05,10,10,10,15,9,21,0.00,1,,166
2013-8-27,92,81,70,69,67,65,84,64,44,30.09,30.04,29.98,10,10,10,17,7,21,0.00,1,,179
2013-8-28,94,83,72,72,70,69,87,67,46,30.04,30.00,29.96,10,10,10,20,7,24,0.00,1,,169
2013-8-29,98,88,78,71,69,65,79,57,35,30.03,29.98,29.93,10,10,10,13,7,16,0.00,4,,181
2013-8-30,100,87,73,70,68,66,87,61,35,29.96,29.90,29.82,10,10,10,14,8,18,0.00,1,,172
2013-8-31,102,91,80,70,68,66,61,47,33,29.86,29.80,29.74,10,10,10,14,9,17,0.00,1,,177